Location: Franzen
(48.6167°N, 15.3833°E)
Time: 19:28:38
(UTC+00:00)

Vanguard 3 - All Passes

Search period start: 27 July 2021 00:00
Search period end: 06 August 2021 00:00
Orbit: 508 x 3261 km, 33.4° (Epoch: 26 July)

Date Brightness Start Highest point End Pass type
(mag) Time Alt. Az. Time Alt. Az. Time Alt. Az.
27 Jul - 15:36:31 10° S 15:46:43 20° SE 15:58:26 10° E daylight
27 Jul - 17:43:52 10° SW 17:59:27 40° SSE 18:16:28 10° E daylight
27 Jul - 19:56:05 10° WSW 20:14:08 49° S 20:30:36 10° ESE visible
27 Jul - 22:11:11 10° W 22:28:33 40° SSW 22:42:06 10° SE visible
28 Jul - 00:29:39 10° W 00:40:41 20° SW 00:49:27 10° S visible
28 Jul - 14:31:31 10° SE 14:32:24 10° SE 14:33:17 10° ESE daylight
28 Jul - 16:30:31 10° SSW 16:43:47 31° SE 16:59:28 10° E daylight
28 Jul - 18:40:49 10° SW 18:57:41 47° SSE 19:15:10 10° ESE visible
28 Jul - 20:54:28 10° WSW 21:12:35 47° SSW 21:28:09 10° SE visible
28 Jul - 23:10:52 10° W 23:26:04 30° SW 23:37:57 10° SSE visible
29 Jul - 15:18:41 10° S 15:28:50 21° SE 15:41:05 10° E daylight
29 Jul - 17:26:28 10° SW 17:41:30 41° SSE 17:58:57 10° E daylight
29 Jul - 19:38:35 10° WSW 19:56:11 49° S 20:13:21 10° ESE visible
29 Jul - 21:53:26 10° W 22:10:41 39° SSW 22:24:58 10° SE visible
30 Jul - 00:12:07 10° W 00:22:57 19° SW 00:31:54 10° S visible
30 Jul - 14:10:44 10° SE 14:14:37 11° SE 14:18:50 10° ESE daylight
30 Jul - 16:13:09 10° SSW 16:25:54 33° SSE 16:41:50 10° E daylight
30 Jul - 18:23:29 10° WSW 18:39:44 48° S 18:57:44 10° ESE daylight
30 Jul - 20:36:55 10° WSW 20:54:39 46° SSW 21:10:54 10° SE visible
30 Jul - 22:53:12 10° W 23:08:13 29° SW 23:20:37 10° SSE visible
31 Jul - 15:01:09 10° S 15:11:02 23° SE 15:23:30 10° E daylight
31 Jul - 17:09:15 10° SW 17:23:36 42° SSE 17:41:18 10° E daylight
31 Jul - 19:21:13 10° WSW 19:38:14 49° S 19:55:56 10° ESE visible
31 Jul - 21:35:51 10° W 21:52:45 38° SSW 22:07:38 10° SSE visible
31 Jul - 23:54:49 10° W 00:05:06 17° SW 00:14:01 10° SSW visible
01 Aug - 13:52:11 10° SSE 13:56:56 12° SE 14:02:19 10° ESE daylight
01 Aug - 15:55:58 10° SSW 16:08:05 34° SSE 16:24:02 10° E daylight
01 Aug - 18:06:19 10° WSW 18:21:49 48° S 18:40:07 10° ESE daylight
01 Aug - 20:19:31 10° W 20:36:41 45° SSW 20:53:28 10° SE visible
01 Aug - 22:35:40 10° W 22:50:18 27° SW 23:03:01 10° S visible
02 Aug - 14:43:53 10° S 14:53:20 24° SE 15:05:47 10° E daylight
02 Aug - 16:52:13 10° SW 17:05:46 43° SSE 17:23:30 10° E daylight
02 Aug - 19:04:02 10° WSW 19:20:18 48° S 19:38:21 10° ESE visible
02 Aug - 21:18:25 10° W 21:34:47 36° SSW 21:50:04 10° SSE visible
02 Aug - 23:37:51 10° WSW 23:47:13 16° SW 23:55:41 10° SSW visible
03 Aug - 13:34:17 10° SSE 13:39:20 13° SE 13:45:16 10° ESE daylight
03 Aug - 15:38:59 10° SSW 15:50:22 35° SSE 16:06:08 10° E daylight
03 Aug - 17:49:19 10° WSW 18:03:58 48° S 18:22:20 10° ESE daylight
03 Aug - 20:02:16 10° W 20:18:44 43° SSW 20:35:51 10° SE visible
03 Aug - 22:18:22 10° W 22:32:20 25° SW 22:45:09 10° S visible
04 Aug - 14:26:51 10° S 14:35:45 25° SE 14:47:56 10° E daylight
04 Aug - 16:35:21 10° SW 16:48:03 43° SSE 17:05:34 10° ESE daylight
04 Aug - 18:46:59 10° WSW 19:02:25 47° S 19:20:36 10° ESE visible
04 Aug - 21:01:10 10° W 21:16:48 34° SSW 21:32:17 10° SSE visible
04 Aug - 23:21:23 10° WSW 23:29:17 14° SW 23:36:46 10° SSW visible
05 Aug - 13:16:49 10° SSE 13:21:52 14° SE 13:27:58 10° ESE daylight
05 Aug - 15:22:11 10° SSW 15:32:47 35° SSE 15:48:08 10° E daylight
05 Aug - 17:32:27 10° WSW 17:46:13 47° S 18:04:25 10° ESE daylight
05 Aug - 19:45:12 10° W 20:00:47 41° SSW 20:18:01 10° SE visible
05 Aug - 22:01:18 10° W 22:14:21 23° SW 22:26:57 10° S visible
